Language: 


Des rapports , des résumés tant et plus, au choix de chacun....


Données statistiques de la station
Quotidien Rapport Janvier 15, 2018 Unités:  Anglais    Métrique   les deux
« Précédent Jour
Suivant Jour »
Quotidien Hebdomadaire Mensuel Annuel Actuel
  Haut: Bas: Moyen:
Température: TemperatureC °F -0.2 °F 5.2 °F
Pt de rosée: DewpointC °F -1.0 °F 5 °F
Humidité: Humidity % 90 % 96 %
Vitesse du vent: WindSpeedKMH mph 0.0 mph 13.6 mph
Rafales: WindSpeedGustKMH mph - -
Vent:- - SW
Pression: PressurehPa in 992.1 in -
Précipitation: 8.6 in    
Historical Graphs
 
 
Données statistiques pour Janvier 15, 2018
Heure Température Point de rosée Pression Vent Vitesse du vent Refales Humidité Pluie (taux horaire)
TemperatureC °F DewpointC °F PressurehPa in Calm     Humidity % HourlyPrecipMM in
00:16 0.2 °F 0.0 °F 1016.1 in Calm     98 % 0.0 in
00:25 0.0 °F -1.0 °F 1016.1 in Calm     98 % 0.0 in
00:31 -0.2 °F -1.0 °F 1016.1 in Calm     98 % 0.0 in
00:38 -0.2 °F -1.0 °F 1016.1 in South 5.0 mph 5.0 mph 98 % 0.0 in
00:48 0.0 °F -1.0 °F 1015.1 in Calm   5.8 mph 98 % 0.0 in
01:14 0.7 °F 1.0 °F 1015.1 in SSW 4.7 mph 9.0 mph 98 % 0.0 in
01:21 0.9 °F 1.0 °F 1015.1 in South 5.8 mph 6.9 mph 98 % 0.0 in
01:31 1.0 °F 1.0 °F 1015.1 in SSW 4.3 mph 8.7 mph 98 % 0.0 in
01:36 1.1 °F 1.0 °F 1015.1 in SSW 6.1 mph 7.2 mph 98 % 0.0 in
01:49 1.1 °F 1.0 °F 1015.1 in SSW 1.8 mph 7.2 mph 98 % 0.0 in
01:54 1.1 °F 1.0 °F 1015.1 in Calm   9.0 mph 98 % 0.0 in
02:02 1.1 °F 1.0 °F 1015.1 in Calm   6.1 mph 98 % 0.0 in
02:09 1.1 °F 1.0 °F 1015.1 in SSW 6.9 mph 6.9 mph 98 % 0.0 in
02:18 1.1 °F 1.0 °F 1014.1 in SSW 6.4 mph 8.7 mph 98 % 0.0 in
02:23 1.1 °F 1.0 °F 1014.1 in Calm   9.0 mph 98 % 0.0 in
02:32 1.1 °F 1.0 °F 1015.1 in South 4.7 mph 7.6 mph 98 % 0.0 in
02:51 1.1 °F 1.0 °F 1014.1 in Calm   6.4 mph 98 % 0.0 in
02:56 1.1 °F 1.0 °F 1014.1 in SSW 5.5 mph 6.9 mph 98 % 0.0 in
03:11 1.1 °F 1.0 °F 1013.1 in SSW 11.6 mph 13.0 mph 98 % 0.0 in
03:25 1.1 °F 1.0 °F 1013.1 in SSW 9.0 mph 13.0 mph 98 % 0.0 in
03:31 1.1 °F 1.0 °F 1013.1 in SSW 11.6 mph 15.8 mph 98 % 0.0 in
03:37 1.1 °F 1.0 °F 1013.1 in South 10.1 mph 13.0 mph 98 % 0.0 in
03:46 1.1 °F 1.0 °F 1013.1 in WSW 20.9 mph 22.7 mph 98 % 0.0 in
04:07 1.1 °F 1.0 °F 1012.1 in SW 14.0 mph 20.9 mph 98 % 0.0 in
04:14 1.1 °F 1.0 °F 1012.1 in SSW 10.5 mph 21.2 mph 98 % 0.0 in
04:39 1.1 °F 1.0 °F 1013.1 in SSW 15.8 mph 17.2 mph 98 % 0.0 in
04:49 1.1 °F 1.0 °F 1013.1 in SSW 14.8 mph 20.6 mph 98 % 0.0 in
04:55 1.1 °F 1.0 °F 1013.1 in SW 11.9 mph 20.6 mph 98 % 0.0 in
05:05 1.1 °F 1.0 °F 1013.1 in SW 9.0 mph 17.7 mph 98 % 0.0 in
05:10 1.1 °F 1.0 °F 1013.1 in SSW 31.7 mph 31.7 mph 98 % 0.0 in
05:15 1.1 °F 1.0 °F 1013.1 in SSW 6.9 mph 31.7 mph 98 % 0.0 in
05:20 1.1 °F 1.0 °F 1013.1 in South 7.9 mph 12.2 mph 98 % 0.0 in
05:25 1.1 °F 1.0 °F 1012.1 in South 7.9 mph 14.0 mph 98 % 0.0 in
05:45 1.1 °F 1.0 °F 1011.1 in SSW 13.0 mph 14.0 mph 98 % 0.0 in
05:54 1.1 °F 1.0 °F 1011.1 in SSW 10.8 mph 17.7 mph 98 % 0.0 in
06:00 1.1 °F 1.0 °F 1011.1 in South 9.7 mph 17.7 mph 98 % 0.0 in
06:16 1.1 °F 1.0 °F 1011.1 in SSW 12.2 mph 19.8 mph 98 % 0.0 in
06:21 1.1 °F 1.0 °F 1011.1 in SSW 9.3 mph 19.8 mph 98 % 0.0 in
06:26 1.1 °F 1.0 °F 1011.1 in SSW 9.0 mph 20.9 mph 98 % 0.0 in
06:34 1.1 °F 1.0 °F 1011.1 in South 9.3 mph 20.9 mph 98 % 0.0 in
06:53 1.1 °F 1.0 °F 1011.1 in SSW 10.5 mph 18.3 mph 98 % 0.0 in
07:11 1.1 °F 1.0 °F 1010.0 in SSW 10.5 mph 17.2 mph 98 % 0.0 in
07:16 1.1 °F 1.0 °F 1010.0 in South 5.0 mph 16.3 mph 98 % 0.0 in
07:29 1.1 °F 1.0 °F 1009.0 in SW 17.7 mph 17.7 mph 98 % 0.0 in
07:34 1.1 °F 1.0 °F 1009.0 in South 11.9 mph 17.7 mph 98 % 0.0 in
07:43 1.1 °F 1.0 °F 1009.0 in South 10.5 mph 17.7 mph 98 % 0.0 in
07:54 1.1 °F 1.0 °F 1009.0 in SSW 10.5 mph 17.2 mph 98 % 0.0 in
08:00 1.1 °F 1.0 °F 1009.0 in SW 12.6 mph 16.9 mph 98 % 0.0 in
08:07 1.1 °F 1.0 °F 1009.0 in SSW 9.7 mph 21.2 mph 98 % 0.0 in
08:18 1.1 °F 1.0 °F 1009.0 in South 14.0 mph 20.9 mph 98 % 0.0 in
08:26 1.1 °F 1.0 °F 1008.0 in SSE 11.9 mph 20.1 mph 98 % 0.0 in
08:34 1.1 °F 1.0 °F 1008.0 in SSW 10.5 mph 20.9 mph 98 % 0.0 in
08:51 5.4 °F 6.0 °F 1007.0 in SSW 8.7 mph 21.2 mph 98 % 0.0 in
08:56 5.4 °F 6.0 °F 1007.0 in SSW 11.6 mph 21.2 mph 98 % 0.0 in
09:04 5.5 °F 6.0 °F 1007.0 in SSW 13.0 mph 24.8 mph 98 % 0.0 in
09:10 5.6 °F 6.0 °F 1007.0 in SW 12.2 mph 24.8 mph 98 % 0.0 in
09:15 5.7 °F 6.0 °F 1007.0 in SSW 15.1 mph 24.5 mph 98 % 0.0 in
09:22 5.7 °F 6.0 °F 1007.0 in SW 12.2 mph 21.2 mph 98 % 0.0 in
10:02 6.3 °F 6.0 °F 1006.0 in SSW 20.6 mph 23.8 mph 96 % 0.0 in
10:11 6.3 °F 6.0 °F 1006.0 in SSW 16.9 mph 28.0 mph 96 % 0.0 in
10:29 6.4 °F 6.0 °F 1006.0 in South 16.3 mph 27.7 mph 94 % 0.0 in
10:39 6.4 °F 6.0 °F 1006.0 in SSW 24.5 mph 25.3 mph 94 % 0.0 in
10:44 6.4 °F 6.0 °F 1005.0 in SSW 14.3 mph 28.0 mph 94 % 0.0 in
11:06 6.4 °F 6.0 °F 1003.9 in SSW 20.6 mph 27.0 mph 94 % 0.5 in
11:25 6.4 °F 6.0 °F 1006.0 in SSW 13.0 mph 29.9 mph 94 % 0.8 in
11:36 6.4 °F 6.0 °F 1003.9 in SSW 19.5 mph 33.8 mph 94 % 0.8 in
11:47 6.3 °F 6.0 °F 1001.9 in SSW 10.8 mph 35.6 mph 98 % 0.5 in
11:59 6.3 °F 6.0 °F 1002.9 in SW 27.0 mph 32.8 mph 98 % 0.3 in
12:05 6.3 °F 6.0 °F 1002.9 in SSW 25.9 mph 38.9 mph 98 % 0.3 in
12:11 6.3 °F 6.0 °F 1001.9 in SW 14.3 mph 27.0 mph 98 % 0.3 in
12:21 6.3 °F 6.0 °F 1001.9 in SW 15.8 mph 35.6 mph 98 % 0.0 in
12:32 6.3 °F 6.0 °F 1001.9 in SSW 24.5 mph 43.1 mph 98 % 0.0 in
12:42 6.3 °F 6.0 °F 1000.9 in SSW 12.2 mph 31.4 mph 98 % 0.0 in
12:52 6.3 °F 6.0 °F 1000.9 in South 27.0 mph 36.7 mph 98 % 0.3 in
12:59 6.7 °F 7.0 °F 1000.9 in South 17.7 mph 30.2 mph 98 % 0.3 in
13:04 6.7 °F 7.0 °F 1000.9 in SW 16.6 mph 36.7 mph 98 % 0.3 in
13:14 6.7 °F 7.0 °F 999.9 in South 16.6 mph 34.6 mph 98 % 0.3 in
13:21 6.6 °F 7.0 °F 999.9 in SSW 17.7 mph 28.0 mph 98 % 0.3 in
13:30 6.6 °F 7.0 °F 998.9 in SSW 16.3 mph 37.0 mph 98 % 0.3 in
13:35 6.7 °F 7.0 °F 998.9 in South 13.7 mph 38.5 mph 98 % 0.3 in
13:40 6.7 °F 7.0 °F 998.9 in South 15.8 mph 38.5 mph 98 % 0.3 in
13:58 6.7 °F 7.0 °F 997.9 in SSW 18.3 mph 32.0 mph 98 % 0.3 in
14:17 6.9 °F 7.0 °F 997.9 in South 20.6 mph 30.6 mph 98 % 1.0 in
14:29 6.9 °F 7.0 °F 996.8 in SSW 27.7 mph 36.4 mph 98 % 1.3 in
14:37 7.0 °F 7.0 °F 996.8 in SW 20.1 mph 40.4 mph 98 % 1.5 in
14:42 7.0 °F 7.0 °F 996.8 in SSW 23.8 mph 40.4 mph 98 % 1.8 in
14:52 7.1 °F 7.0 °F 996.8 in SSW 21.2 mph 38.9 mph 98 % 1.8 in
15:01 7.1 °F 7.0 °F 996.2 in South 16.6 mph 37.8 mph 98 % 2.3 in
15:06 7.1 °F 7.0 °F 996.2 in South 17.2 mph 35.2 mph 98 % 2.5 in
15:19 7.1 °F 7.0 °F 995.1 in SSW 23.0 mph 28.5 mph 98 % 2.3 in
15:24 7.1 °F 7.0 °F 995.1 in SSW 20.6 mph 35.2 mph 98 % 1.8 in
15:31 7.1 °F 7.0 °F 995.1 in SSW 19.1 mph 35.2 mph 98 % 1.8 in
15:40 7.1 °F 7.0 °F 995.1 in SSW 14.0 mph 36.4 mph 98 % 2.3 in
15:57 7.2 °F 7.0 °F 994.1 in SSW 21.2 mph 31.7 mph 98 % 2.3 in
16:03 7.2 °F 7.0 °F 994.1 in SSW 20.9 mph 37.8 mph 98 % 1.8 in
16:12 7.3 °F 7.0 °F 994.1 in SSW 16.9 mph 28.0 mph 98 % 1.8 in
16:18 7.4 °F 7.0 °F 994.1 in SSW 28.8 mph 32.0 mph 98 % 1.5 in
16:25 7.5 °F 8.0 °F 994.1 in SW 19.8 mph 32.0 mph 98 % 1.5 in
16:37 7.7 °F 8.0 °F 993.1 in South 21.9 mph 31.4 mph 98 % 1.0 in
16:42 7.7 °F 8.0 °F 992.1 in WSW 16.9 mph 29.9 mph 98 % 0.8 in
16:51 7.8 °F 8.0 °F 992.1 in SSW 20.6 mph 35.2 mph 98 % 0.3 in
17:00 7.9 °F 8.0 °F 993.1 in SSW 16.6 mph 36.7 mph 98 % 0.3 in
17:07 7.9 °F 8.0 °F 993.1 in WSW 20.9 mph 36.7 mph 98 % 0.3 in
17:13 8.0 °F 8.0 °F 993.1 in SSW 25.6 mph 28.0 mph 98 % 0.0 in
17:18 8.0 °F 8.0 °F 993.1 in SSW 13.7 mph 34.6 mph 98 % 0.0 in
17:23 8.0 °F 8.0 °F 993.1 in SSW 17.7 mph 34.6 mph 98 % 0.0 in
17:32 8.2 °F 8.0 °F 993.1 in SW 20.9 mph 32.0 mph 98 % 0.0 in
17:43 8.3 °F 9.0 °F 993.1 in SSW 16.6 mph 24.8 mph 98 % 0.0 in
17:49 8.5 °F 9.0 °F 993.1 in SW 14.0 mph 28.0 mph 98 % 0.0 in
18:01 8.7 °F 9.0 °F 993.1 in SW 16.6 mph 28.0 mph 98 % 0.8 in
18:11 8.8 °F 9.0 °F 993.1 in WSW 16.9 mph 27.0 mph 98 % 2.3 in
18:19 8.8 °F 9.0 °F 993.1 in SW 10.8 mph 16.9 mph 98 % 2.5 in
18:27 8.8 °F 9.0 °F 994.1 in SW 9.3 mph 14.0 mph 98 % 2.5 in
18:34 8.9 °F 9.0 °F 994.1 in WSW 17.7 mph 19.1 mph 98 % 2.5 in
18:42 9.1 °F 9.0 °F 993.1 in WSW 13.0 mph 20.1 mph 98 % 2.5 in
18:49 9.2 °F 9.0 °F 993.1 in WSW 13.7 mph 20.6 mph 98 % 2.5 in
18:55 9.3 °F 9.0 °F 993.1 in West 12.2 mph 24.5 mph 98 % 2.3 in
19:34 9.3 °F 9.0 °F 993.1 in WSW 16.6 mph 27.7 mph 98 % 0.0 in
19:39 9.3 °F 9.0 °F 993.1 in West 12.6 mph 27.4 mph 98 % 0.0 in
19:48 9.1 °F 9.0 °F 993.1 in West 26.2 mph 26.2 mph 98 % 0.0 in
20:07 9.1 °F 9.0 °F 993.1 in West 16.6 mph 27.7 mph 98 % 0.3 in
20:14 9.1 °F 9.0 °F 994.1 in West 25.6 mph 27.7 mph 98 % 0.3 in
20:21 9.0 °F 9.0 °F 994.1 in West 17.7 mph 28.5 mph 98 % 0.3 in
20:27 9.0 °F 9.0 °F 994.1 in West 12.6 mph 28.5 mph 98 % 0.3 in
20:37 9.1 °F 9.0 °F 994.1 in West 15.8 mph 28.0 mph 98 % 0.3 in
20:43 9.1 °F 9.0 °F 994.1 in WSW 23.3 mph 37.5 mph 98 % 0.3 in
21:13 8.9 °F 8.0 °F 994.1 in West 12.6 mph 32.0 mph 93 % 0.0 in
21:37 8.9 °F 8.0 °F 995.1 in WNW 4.3 mph 27.0 mph 93 % 0.0 in
21:46 8.5 °F 8.0 °F 995.1 in West 14.0 mph 14.0 mph 92 % 0.0 in
21:47 8.5 °F 8.0 °F 995.1 in West 6.1 mph 14.0 mph 92 % 0.0 in
21:48 8.5 °F 8.0 °F 995.1 in NW 4.3 mph 14.0 mph 92 % 0.0 in
21:49 8.5 °F 8.0 °F 995.1 in WNW 4.3 mph 14.0 mph 92 % 0.0 in
21:50 8.5 °F 8.0 °F 995.1 in WSW 4.7 mph 14.0 mph 92 % 0.0 in
21:53 8.5 °F 8.0 °F 995.1 in WNW 6.1 mph 14.0 mph 92 % 0.0 in
21:58 8.5 °F 8.0 °F 995.1 in North 4.0 mph 9.3 mph 92 % 0.0 in
22:02 8.5 °F 8.0 °F 995.1 in Calm   10.5 mph 92 % 0.0 in
22:06 8.5 °F 8.0 °F 995.1 in WSW 9.0 mph 10.5 mph 92 % 0.0 in
22:13 8.5 °F 8.0 °F 995.1 in SW 7.9 mph 9.3 mph 92 % 0.0 in
22:17 8.5 °F 8.0 °F 995.1 in West 14.0 mph 14.0 mph 92 % 0.0 in
22:25 8.5 °F 8.0 °F 995.1 in West 12.6 mph 30.9 mph 92 % 0.0 in
23:01 7.3 °F 6.0 °F 995.1 in WSW 16.9 mph 25.3 mph 92 % 0.0 in
23:08 7.2 °F 6.0 °F 995.1 in WSW 17.2 mph 28.5 mph 92 % 0.0 in
23:17 7.3 °F 6.0 °F 995.1 in West 20.9 mph 27.4 mph 92 % 0.0 in
23:30 7.1 °F 6.0 °F 995.1 in WSW 20.6 mph 24.5 mph 91 % 0.0 in
23:44 7.1 °F 6.0 °F 995.1 in West 21.2 mph 25.3 mph 91 % 0.0 in
23:55 7.2 °F 6.0 °F 995.1 in West 24.5 mph 28.5 mph 90 % 0.0 in
Le Gheer Warneton
Courtoisie de Weather Underground - 1.5 mb

Mise a jour : 18/02/2018 20:49:12
Généré par Cumulus 1.9.4 (1099)